This is the latest recevied weather packets stored in our database for station/object F4IVW-13. If no packets are shown the sender has not sent any weather packets the latest 10 day(s).
| Time | Temp. | Humidity | Pressure | Rain* | Wind** | Luminosity | Snow |
|---|---|---|---|---|---|---|---|
| 1777807071 | 22.22° C | 99% | 1013.8 hPa | 0 mm | - | 48 W/m² | - |
| 1777806755 | 21.67° C | 99% | 1013.8 hPa | 0 mm | - | 58 W/m² | - |
| 1777806444 | 21.67° C | 99% | 1013.9 hPa | 0 mm | - | 64 W/m² | - |
| 1777806118 | 21.11° C | 99% | 1014.1 hPa | 0 mm | - | 22 W/m² | - |
| 1777805800 | 21.11° C | 99% | 1014.2 hPa | 0 mm | - | 13 W/m² | - |
| 1777805481 | 21.11° C | 99% | 1014.3 hPa | 0 mm | - | 15 W/m² | - |
| 1777805164 | 21.11° C | 99% | 1014.4 hPa | 0 mm | - | 14 W/m² | - |
| 1777804846 | 21.11° C | 99% | 1014.3 hPa | 0 mm | - | 33 W/m² | - |
| 1777804535 | 21.11° C | 99% | 1014.3 hPa | 0 mm | - | 68 W/m² | - |
| 1777804210 | 20.56° C | 99% | 1014.5 hPa | 0 mm | - | 42 W/m² | - |
| 1777803896 | 21.11° C | 99% | 1014.5 hPa | 0 mm | - | 53 W/m² | - |
| 1777803573 | 20.56° C | 99% | 1014.6 hPa | 0 mm | - | 29 W/m² | - |
| 1777803256 | 20.56° C | 99% | 1014.6 hPa | 0 mm | - | 19 W/m² | - |
| 1777802937 | 20.56° C | 99% | 1014.6 hPa | 0 mm | - | 19 W/m² | - |
| 1777802629 | 21.11° C | 99% | 1014.6 hPa | 0 mm | - | 26 W/m² | - |
| 1777802302 | 22.22° C | 99% | 1014.6 hPa | 0 mm | - | 22 W/m² | - |
| 1777801983 | 22.22° C | 99% | 1014.6 hPa | 0 mm | - | 21 W/m² | - |
| 1777801666 | 21.67° C | 99% | 1014.5 hPa | 0 mm | - | 56 W/m² | - |
| 1777801351 | 21.11° C | 99% | 1014.6 hPa | 0 mm | - | 62 W/m² | - |
| 1777801031 | 21.67° C | 99% | 1014.6 hPa | 0 mm | - | 40 W/m² | - |
| 1777800720 | 21.67° C | 99% | 1014.6 hPa | 0 mm | - | 38 W/m² | - |
| 1777800398 | 22.22° C | 99% | 1014.7 hPa | 0 mm | - | 32 W/m² | - |
| 1777800077 | 21.67° C | 99% | 1014.7 hPa | 0 mm | - | 58 W/m² | - |
| 1777799760 | 21.67° C | 99% | 1014.7 hPa | 0 mm | - | 71 W/m² | - |
| 1777799443 | 20.56° C | 99% | 1014.7 hPa | 0 mm | - | 75 W/m² | - |
* Rain latest hour (hover to see other rain measurements)
** Current wind speed in m/s (hover to see current wind gust speed)